Montpelier, VT

10:09 PM EDT on June 23, 2017 (GMT -0400)
Knapp State

Weather History for KMPV - June, 2012

Change the Weather History Date:

Thursday, June 7, 2012

  Actual Average Record
Temperature  
Mean Temperature 57 °F 60 °F  
Max Temperature 68 °F 72 °F 89 °F (1999)
Min Temperature 46 °F 49 °F 29 °F (1958)
Degree Days  
Heating Degree Days 9 6  
Month to date heating degree days 45  
Since 1 June heating degree days 45  
Since 1 July heating degree days 8105  
Cooling Degree Days 0 1  
Month to date cooling degree days 0 7  
Year to date cooling degree days 16 17  
Since 1 June cooling degree days 0 7  
Growing Degree Days 6 (Base 50)    
Moisture  
Dew Point 49 °F    
Average Humidity 71    
Maximum Humidity 100    
Minimum Humidity 42    
Precipitation  
Precipitation 0.02 in 0.13 in 1.78 in (1984)
Month to date precipitation 1.53 0.89  
Year to date precipitation 11.86 13.80  
Sea Level Pressure  
Sea Level Pressure 30.00 in    
Wind  
Wind Speed 1 mph (SSE)    
Max Wind Speed 10 mph    
Max Gust Speed 13 mph    
Visibility 6 miles    
Events Fog , Rain    
T = Trace of Precipitation, MM = Missing Value Source: NWS Daily Summary

Daily Weather History Graph

Daily Weather History Graph

Search for Another Location

Airport or City:

Trip Planner

Search our weather history database for the weather conditions in past years. The results will help you decide how hot, cold, wet, or windy it might be!

Date:

Astronomy

Jun. 07, 2012 Rise Set
Actual Time 5:07 AM EDT 8:31 PM EDT
Civil Twilight 4:30 AM EDT 9:07 PM EDT
Nautical Twilight 3:43 AM EDT 9:55 PM EDT
Astronomical Twilight 2:44 AM EDT 10:54 PM EDT
Moon 11:14 PM EDT (6/7) 8:39 AM EDT (6/7)
Length of Visible Light 16h 36m
Length of Day
15h 24m
Waning Gibbous, 86% of the Moon is Illuminated
Jun 7
Waning Gibbous
Jun 11
Last Quarter
Jun 19
New
Jun 26
First Quarter
Jul 3
Full

Hourly Weather History & Observations

Time (EDT) Temp. Dew Point Humidity Pressure Visibility Wind Dir Wind Speed Gust Speed Precip Events Conditions
12:51 AM 50.0 °F 50.0 °F 100% 30.01 in 10.0 mi Calm Calm - N/A   Overcast
1:10 AM 51.8 °F 50.0 °F 94% 30.01 in 10.0 mi Calm Calm - N/A   Overcast
1:20 AM 50.0 °F 48.2 °F 94% 30.00 in 10.0 mi SSW 3.5 mph - N/A   Overcast
1:51 AM 48.9 °F 48.9 °F 100% 30.01 in 10.0 mi Calm Calm - N/A   Overcast
2:28 AM 46.4 °F 46.4 °F 100% 29.99 in 2.5 mi Calm Calm - N/A   Overcast
2:35 AM 48.2 °F 46.4 °F 93% 29.99 in 10.0 mi Calm Calm - N/A   Overcast
2:51 AM 48.0 °F 46.9 °F 96% 30.00 in 10.0 mi Calm Calm - N/A   Scattered Clouds
3:12 AM 48.2 °F 48.2 °F 100% 29.99 in 2.0 mi Calm Calm - N/A   Mostly Cloudy
3:14 AM 48.2 °F 48.2 °F 100% 29.99 in 1.2 mi Calm Calm - N/A   Mostly Cloudy
3:21 AM 48.2 °F 48.2 °F 100% 29.99 in 1.0 mi Calm Calm - N/A   Mostly Cloudy
3:23 AM 48.2 °F 48.2 °F 100% 29.99 in 1.8 mi Calm Calm - N/A   Overcast
3:28 AM 48.2 °F 48.2 °F 100% 29.99 in 0.8 mi Calm Calm - N/A   Overcast
3:51 AM 48.9 °F 48.9 °F 100% 30.00 in 0.2 mi Calm Calm - N/A Fog Fog
4:51 AM 48.9 °F 48.9 °F 100% 30.01 in 0.5 mi Calm Calm - N/A Fog Fog
5:12 AM 48.2 °F 48.2 °F 100% 30.00 in 1.2 mi Calm Calm - N/A   Overcast
5:15 AM 48.2 °F 48.2 °F 100% 30.01 in 2.0 mi Calm Calm - N/A   Overcast
5:23 AM 48.2 °F 48.2 °F 100% 30.01 in 3.0 mi Calm Calm - N/A   Overcast
5:25 AM 48.2 °F 48.2 °F 100% 30.01 in 1.2 mi Calm Calm - N/A   Overcast
5:27 AM 48.2 °F 48.2 °F 100% 30.01 in 0.8 mi Calm Calm - N/A   Mist
5:51 AM 48.9 °F 48.9 °F 100% 30.02 in 0.2 mi Calm Calm - N/A Fog Fog
6:51 AM 50.0 °F 50.0 °F 100% 30.03 in 0.2 mi Calm Calm - N/A Fog Fog
7:09 AM 50.0 °F 50.0 °F 100% 30.02 in 1.2 mi Calm Calm - N/A   Overcast
7:12 AM 50.0 °F 50.0 °F 100% 30.02 in 2.0 mi Calm Calm - N/A   Overcast
7:20 AM 50.0 °F 50.0 °F 100% 30.02 in 3.0 mi Calm Calm - N/A   Overcast
7:51 AM 51.1 °F 51.1 °F 100% 30.03 in 1.8 mi Calm Calm - N/A   Overcast
7:57 AM 51.8 °F 51.8 °F 100% 30.02 in 1.0 mi Calm Calm - N/A   Overcast
8:01 AM 51.8 °F 51.8 °F 100% 30.02 in 1.5 mi Calm Calm - N/A   Overcast
8:07 AM 51.8 °F 51.8 °F 100% 30.02 in 3.0 mi Calm Calm - N/A   Overcast
8:35 AM 53.6 °F 51.8 °F 94% 30.01 in 10.0 mi Calm Calm - N/A   Partly Cloudy
8:51 AM 55.0 °F 52.0 °F 89% 30.03 in 10.0 mi Calm Calm - N/A   Clear
9:51 AM 62.1 °F 53.1 °F 72% 30.02 in 10.0 mi Variable 4.6 mph - N/A   Clear
10:51 AM 61.0 °F 50.0 °F 67% 30.01 in 10.0 mi Variable 3.5 mph - 0.01 in Rain Light Rain
11:51 AM 64.9 °F 48.9 °F 56% 30.00 in 10.0 mi North 4.6 mph - 0.00 in   Mostly Cloudy
12:51 PM 61.0 °F 48.9 °F 64% 30.01 in 10.0 mi NE 5.8 mph - 0.00 in Rain Light Rain
1:51 PM 62.1 °F 48.0 °F 60% 29.99 in 10.0 mi Calm Calm - 0.01 in Rain Light Rain
2:51 PM 64.9 °F 46.9 °F 52% 29.97 in 10.0 mi Calm Calm - 0.00 in   Overcast
3:51 PM 66.9 °F 48.0 °F 51% 29.96 in 10.0 mi Variable 3.5 mph - N/A   Scattered Clouds
4:51 PM 66.0 °F 43.0 °F 43% 29.96 in 10.0 mi East 4.6 mph - N/A   Mostly Cloudy
5:51 PM 66.9 °F 45.0 °F 45% 29.94 in 10.0 mi Calm Calm - N/A   Clear
6:51 PM 66.0 °F 48.0 °F 52% 29.95 in 10.0 mi SSW 3.5 mph - N/A   Clear
7:51 PM 63.0 °F 52.0 °F 67% 29.95 in 10.0 mi Calm Calm - N/A   Clear
8:51 PM 55.0 °F 48.9 °F 80% 29.96 in 10.0 mi SW 4.6 mph - N/A   Clear
9:51 PM 55.0 °F 48.0 °F 77% 29.97 in 10.0 mi Calm Calm - N/A   Partly Cloudy
10:51 PM 51.1 °F 48.9 °F 92% 29.98 in 10.0 mi Calm Calm - N/A   Partly Cloudy
11:51 PM 48.9 °F 46.9 °F 93% 29.96 in 10.0 mi Calm Calm - N/A   Clear